Eastman Lake Weather Center

Moon Phase Calendar



Eastman Lake Water Level
Online Cameras

 


      

Current Conditions in Madera
6/25/2021 5:05:41 AM

65°F
Feels Like 64
Clear
Humidity
62%
Pressure
29.94"
Wind
2.1 mph (NNW)
Dew Point
52°F
UV Index
0/10 (Low)
Visibility
6 mi

Hourly Forecast

Date & Time Fri, Jun 25
5:00 AM
Fri, Jun 25
6:00 AM
Fri, Jun 25
7:00 AM
Fri, Jun 25
8:00 AM
Fri, Jun 25
9:00 AM
Fri, Jun 25
10:00 AM
Fri, Jun 25
11:00 AM
Fri, Jun 25
12:00 PM
Fri, Jun 25
1:00 PM
Fri, Jun 25
2:00 PM
Fri, Jun 25
3:00 PM
Fri, Jun 25
4:00 PM
Fri, Jun 25
5:00 PM
Fri, Jun 25
6:00 PM
Fri, Jun 25
7:00 PM
Fri, Jun 25
8:00 PM
Fri, Jun 25
9:00 PM
Fri, Jun 25
10:00 PM
Fri, Jun 25
11:00 PM
Sat, Jun 26
12:00 AM
Sat, Jun 26
1:00 AM
Sat, Jun 26
2:00 AM
Sat, Jun 26
3:00 AM
Sat, Jun 26
4:00 AM
Sat, Jun 26
5:00 AM
Sat, Jun 26
6:00 AM
Sat, Jun 26
7:00 AM
Sat, Jun 26
8:00 AM
Sat, Jun 26
9:00 AM
Sat, Jun 26
10:00 AM
Sat, Jun 26
11:00 AM
Sat, Jun 26
12:00 PM
Sat, Jun 26
1:00 PM
Sat, Jun 26
2:00 PM
Sat, Jun 26
3:00 PM
Sat, Jun 26
4:00 PM
Sat, Jun 26
5:00 PM
Sat, Jun 26
6:00 PM
Sat, Jun 26
7:00 PM
Sat, Jun 26
8:00 PM
Sat, Jun 26
9:00 PM
Sat, Jun 26
10:00 PM
Sat, Jun 26
11:00 PM
Sun, Jun 27
12:00 AM
Sun, Jun 27
1:00 AM
Sun, Jun 27
2:00 AM
Sun, Jun 27
3:00 AM
Sun, Jun 27
4:00 AM
Condition
Clear

Clear

Clear

Clear

Clear

Clear

Clear

Clear

Clear

Clear

Clear

Clear

Clear

Clear

Clear

Clear

Clear

Clear

Clear

Clear

Clear

Clear

Clear

Clear

Clear

Clear

Clear

Clear

Clear

Clear

Clear

Clear

Clear

Clear

Clear

Clear

Clear

Clear

Clear

Clear

Clear

Clear

Clear

Clear

Clear

Clear

Clear

Clear
Temperature 65°F64°F66°F69°F74°F81°F85°F89°F93°F95°F97°F98°F98°F97°F95°F90°F83°F79°F76°F74°F73°F72°F71°F71°F70°F70°F75°F80°F84°F89°F93°F97°F100°F103°F105°F106°F107°F107°F105°F98°F90°F86°F83°F80°F79°F79°F78°F78°F
Feels Like 64°F63°F65°F68°F73°F80°F83°F86°F89°F91°F93°F94°F94°F93°F91°F86°F81°F79°F75°F73°F72°F71°F70°F69°F68°F68°F74°F79°F82°F86°F89°F93°F96°F99°F101°F102°F102°F102°F101°F93°F86°F83°F81°F79°F79°F78°F77°F76°F
Cloudiness 0%0%0%0%0%0%0%0%0%0%0%0%0%4%4%3%2%2%2%0%0%0%0%0%0%0%0%0%0%0%0%0%0%0%0%0%0%0%0%0%0%0%0%0%0%0%0%0%
Visibility 6 mi6 mi6 mi6 mi6 mi6 mi6 mi6 mi6 mi6 mi6 mi6 mi6 mi6 mi6 mi6 mi6 mi6 mi6 mi6 mi6 mi6 mi6 mi6 mi6 mi6 mi6 mi6 mi6 mi6 mi6 mi6 mi6 mi6 mi6 mi6 mi6 mi6 mi6 mi6 mi6 mi6 mi6 mi6 mi6 mi6 mi6 mi6 mi
Precipitation 0%0%0%0%0%0%0%0%0%0%0%0%0%0%0%0%0%0%0%0%0%0%0%0%0%0%0%0%0%0%0%0%0%0%0%0%0%0%0%0%0%0%0%0%0%0%0%0%
Humidity 62%60%56%47%39%30%27%24%20%17%15%14%13%14%16%20%27%31%35%37%39%41%42%43%44%44%37%32%28%25%22%19%17%15%14%13%12%12%13%16%21%25%28%30%31%31%30%30%
Dew Point 52°F50°F50°F48°F48°F46°F47°F47°F46°F43°F42°F40°F40°F40°F42°F44°F45°F46°F46°F46°F46°F46°F46°F46°F46°F46°F46°F47°F48°F48°F48°F48°F48°F47°F46°F45°F44°F44°F44°F44°F44°F45°F46°F46°F46°F45°F44°F43°F
Pressure 29.94"29.94"29.94"29.97"29.97"29.94"29.94"29.91"29.88"29.85"29.83"29.8"29.8"29.77"29.77"29.8"29.83"29.85"29.85"29.85"29.85"29.85"29.85"29.85"29.85"29.85"29.85"29.85"29.85"29.85"29.83"29.8"29.8"29.74"29.71"29.68"29.68"29.65"29.65"29.65"29.68"29.68"29.68"29.71"29.68"29.68"29.68"29.68"
Wind Speed 2.1 mph1.5 mph0.8 mph2.1 mph4 mph4.8 mph4.5 mph5.9 mph7.2 mph6.9 mph7.2 mph8.3 mph9.2 mph10.1 mph10.4 mph8.5 mph7.4 mph6.3 mph5.5 mph5 mph4.6 mph4.1 mph3.9 mph3.7 mph3.8 mph3.2 mph1.7 mph3.4 mph4.6 mph5.7 mph6.4 mph6.6 mph7.5 mph7.9 mph8 mph8.4 mph9.2 mph10.6 mph10.3 mph6.9 mph5.9 mph5.6 mph4.9 mph3.3 mph3.4 mph3.4 mph4 mph2.2 mph
Wind
Direction
334°
NNW
327°
NNW
327°
NNW
226°
SW
228°
SW
237°
WSW
254°
WSW
254°
WSW
267°
W
279°
W
283°
WNW
282°
WNW
285°
WNW
291°
WNW
299°
WNW
302°
WNW
310°
NW
317°
NW
329°
NNW
341°
NNW
350°
N

N
345°
NNW
344°
NNW
347°
NNW
360°
N
307°
NW
263°
W
261°
W
264°
W
265°
W
271°
W
275°
W
282°
WNW
286°
WNW
288°
WNW
291°
WNW
297°
WNW
300°
WNW
301°
WNW
310°
NW
336°
NNW
342°
NNW
355°
N
14°
NNE
18°
NNE
33°
NNE
12°
NNE

Daily Forecast

Date High Low Precip. Humidity
Today
Jun 25

Clear
98 °F
64 °F
0%
20%
Saturday
Jun 26

Clear
107 °F
70 °F
0%
17%
Sunday
Jun 27

Clear
113 °F
76 °F
0%
11%
Monday
Jun 28

Clear
111 °F
75 °F
9%
10%
Tuesday
Jun 29

Clear
113 °F
76 °F
1%
8%
Wednesday
Jun 30

Clouds
111 °F
75 °F
4%
10%
Thursday
Jul 1

Clouds
104 °F
68 °F
20%
14%
Friday
Jul 2

Clear
105 °F
70 °F
16%
15%
Saturday
Jul 3

Clear
108 °F
69 °F
0%
12%
Sunday
Jul 4

Clear
107 °F
70 °F
8%
14%
Monday
Jul 5

Clear
106 °F
70 °F
0%
10%
Tuesday
Jul 6

Clear
102 °F
64 °F
0%
11%
Wednesday
Jul 7

Clear
102 °F
61 °F
0%
12%
Thursday
Jul 8

Clear
102 °F
64 °F
0%
10%
Friday
Jul 9

Clear
101 °F
63 °F
0%
7%
Saturday
Jul 10

Clear
107 °F
67 °F
0%
6%

Temperature 8-14 Day Outlook



Precipitation 8-14 Day Outlook




Quick Links
Eastman Lake News
Eastman Lake Photos
Eastman Lake Videos




About Us
Contact Us
Site Map
Search Site
Advertise With Us
   
Eastman.LakesOnline.com
THE EASTMAN LAKE WEBSITE

Copyright 2021, Lakes Online
Privacy    |    Legal